Jonesville, VA

10:06 PM EDT on March 22, 2017 (GMT -0400)
Jonesville

Weather History for K0VG - January, 2013

Change the Weather History Date:

Tuesday, January 15, 2013

  Actual Average (KLNP) Record (KLNP)
Temperature  
Mean Temperature 39 °F -  
Max Temperature 41 °F 37 °F 62 °F (2007)
Min Temperature 37 °F 21 °F 3 °F (2009)
Degree Days  
Heating Degree Days 26    
Moisture  
Dew Point 39 °F    
Average Humidity 99    
Maximum Humidity 100    
Minimum Humidity 93    
Precipitation  
Precipitation 1.08 in - - ()
Sea Level Pressure  
Sea Level Pressure 30.11 in    
Wind  
Wind Speed 2 mph (East)    
Max Wind Speed 6 mph    
Max Gust Speed -    
Visibility 6 miles    
Events Rain    
Averages and records for this station are not official NWS values.
T = Trace of Precipitation, MM = Missing Value Source: NWS Daily Summary

Daily Weather History Graph

Daily Weather History Graph

Search for Another Location

Airport or City:

Trip Planner

Search our weather history database for the weather conditions in past years. The results will help you decide how hot, cold, wet, or windy it might be!

Date:

Astronomy

Jan. 15, 2013 Rise Set
Actual Time 7:44 AM EST 5:40 PM EST
Civil Twilight 7:16 AM EST 6:09 PM EST
Nautical Twilight 6:44 AM EST 6:40 PM EST
Astronomical Twilight 6:13 AM EST 7:11 PM EST
Moon 9:57 AM EST (1/15) 10:20 PM EST (1/15)
Length of Visible Light 10h 53m
Length of Day
9h 56m
Waxing Crescent, 19% of the Moon is Illuminated
Jan 15
Waxing Crescent
Jan 18
First Quarter
Jan 26
Full
Feb 3
Last Quarter
Feb 10
New

Hourly Weather History & Observations

Time (EST) Temp. Windchill Dew Point Humidity Pressure Visibility Wind Dir Wind Speed Gust Speed Precip Events Conditions
12:15 AM 37.4 °F 32.8 °F 37.4 °F 100% 30.19 in 10.0 mi NE 5.8 mph - N/A   Overcast
12:35 AM 39.2 °F 35.0 °F 37.4 °F 93% 30.17 in 5.0 mi East 5.8 mph - 0.01 in Rain Light Rain
12:55 AM 39.2 °F - 37.4 °F 93% 30.17 in 7.0 mi Calm Calm - 0.02 in Rain Light Rain
1:15 AM 39.2 °F 37.0 °F 37.4 °F 93% 30.16 in 10.0 mi NE 3.5 mph - N/A   Unknown
1:55 AM 39.2 °F - 39.2 °F 100% 30.16 in 10.0 mi Calm Calm - N/A   Overcast
2:15 AM 39.2 °F - 39.2 °F 100% 30.16 in 10.0 mi Calm Calm - N/A   Overcast
2:55 AM 39.2 °F - 39.2 °F 100% 30.14 in 10.0 mi Calm Calm - N/A Rain Light Rain
3:15 AM 39.2 °F - 39.2 °F 100% 30.14 in 10.0 mi Calm Calm - N/A   Overcast
3:35 AM 39.2 °F - 39.2 °F 100% 30.15 in 10.0 mi Calm Calm - N/A   Overcast
3:55 AM 39.2 °F 37.0 °F 39.2 °F 100% 30.14 in 10.0 mi SSW 3.5 mph - N/A   Overcast
4:15 AM 39.2 °F - 39.2 °F 100% 30.14 in 10.0 mi Calm Calm - N/A   Overcast
4:35 AM 39.2 °F - 39.2 °F 100% 30.14 in 10.0 mi Calm Calm - N/A   Overcast
4:55 AM 39.2 °F - 39.2 °F 100% 30.13 in 10.0 mi Calm Calm - N/A   Overcast
5:15 AM 39.2 °F - 39.2 °F 100% 30.16 in 10.0 mi Calm Calm - N/A   Overcast
5:55 AM 39.2 °F - 37.4 °F 93% 30.16 in 7.0 mi Calm Calm - N/A Rain Light Rain
6:15 AM 39.2 °F - 37.4 °F 93% 30.16 in 3.0 mi Calm Calm - 0.04 in Rain Rain
6:35 AM 39.2 °F 37.0 °F 37.4 °F 93% 30.18 in 5.0 mi NW 3.5 mph - 0.08 in Rain Light Rain
6:55 AM 39.2 °F - 37.4 °F 93% 30.18 in 8.0 mi Calm Calm - 0.09 in Rain Light Rain
7:15 AM 39.2 °F - 37.4 °F 93% 30.20 in 5.0 mi Calm Calm - N/A   Mostly Cloudy
7:35 AM 37.4 °F - 37.4 °F 100% 30.20 in 4.0 mi Calm Calm - 0.02 in Rain Light Rain
7:55 AM 37.4 °F - 37.4 °F 100% 30.20 in 4.0 mi Calm Calm - 0.06 in Rain Light Rain
8:15 AM 37.4 °F - 37.4 °F 100% 30.18 in 5.0 mi Calm Calm - 0.01 in Rain Light Rain
8:35 AM 37.4 °F 34.9 °F 37.4 °F 100% 30.22 in 6.0 mi NW 3.5 mph - 0.02 in Rain Light Rain
8:55 AM 37.4 °F - 37.4 °F 100% 30.23 in 5.0 mi Calm Calm - 0.03 in Rain Light Rain
9:15 AM 37.4 °F - 37.4 °F 100% 30.23 in 9.0 mi Calm Calm - N/A Rain Light Rain
9:35 AM 37.4 °F - 37.4 °F 100% 30.23 in 7.0 mi Calm Calm - N/A Rain Light Rain
9:55 AM 37.4 °F - 37.4 °F 100% 30.23 in 6.0 mi Calm Calm - 0.01 in Rain Light Rain
10:15 AM 37.4 °F - 37.4 °F 100% 30.22 in 10.0 mi Calm Calm - N/A   Mostly Cloudy
10:35 AM 39.2 °F - 37.4 °F 93% 30.22 in 10.0 mi Calm Calm - N/A   Overcast
10:55 AM 39.2 °F - 37.4 °F 93% 30.20 in 10.0 mi Calm Calm - N/A   Overcast
11:15 AM 39.2 °F 35.9 °F 37.4 °F 93% 30.16 in 10.0 mi East 4.6 mph - N/A   Overcast
11:35 AM 39.2 °F - 39.2 °F 100% 30.16 in 10.0 mi Calm Calm - N/A Rain Light Rain
11:55 AM 39.2 °F 35.0 °F 39.2 °F 100% 30.15 in 4.0 mi NE 5.8 mph - 0.01 in Rain Light Rain
12:15 PM 39.2 °F - 39.2 °F 100% 30.15 in 4.0 mi Calm Calm - N/A Rain Light Rain
12:35 PM 39.2 °F 37.0 °F 39.2 °F 100% 30.14 in 3.0 mi East 3.5 mph - 0.02 in Rain Light Rain
1:35 PM 39.2 °F 35.0 °F 39.2 °F 100% 30.07 in 10.0 mi East 5.8 mph - N/A   Mostly Cloudy
1:55 PM 39.2 °F 37.0 °F 39.2 °F 100% 30.08 in 10.0 mi ENE 3.5 mph - N/A Rain Light Rain
2:35 PM 41.0 °F - 39.2 °F 93% 30.07 in 3.0 mi Calm Calm - 0.04 in Rain Light Rain
2:55 PM 41.0 °F - 39.2 °F 93% 30.07 in 4.0 mi Calm Calm - 0.06 in Rain Light Rain
3:15 PM 41.0 °F - 41.0 °F 100% 30.06 in 3.0 mi Calm Calm - N/A Rain Light Rain
3:35 PM 41.0 °F 38.0 °F 41.0 °F 100% 30.03 in 4.0 mi East 4.6 mph - 0.01 in Rain Light Rain
3:55 PM 41.0 °F - 41.0 °F 100% 30.04 in 6.0 mi Calm Calm - 0.02 in Rain Light Rain
4:15 PM 41.0 °F - 41.0 °F 100% 30.04 in 4.0 mi Calm Calm - 0.01 in Rain Light Rain
4:35 PM 41.0 °F - 41.0 °F 100% 30.05 in 4.0 mi Calm Calm - 0.01 in Rain Light Rain
4:55 PM 41.0 °F - 41.0 °F 100% 30.06 in 1.8 mi Calm Calm - 0.05 in Rain Light Rain
5:15 PM 41.0 °F 37.1 °F 41.0 °F 100% 30.07 in 2.5 mi SSW 5.8 mph - 0.03 in Rain Rain
5:35 PM 41.0 °F - 41.0 °F 100% 30.05 in 3.0 mi Calm Calm - 0.08 in Rain Rain
5:55 PM 41.0 °F - 41.0 °F 100% 30.06 in 3.0 mi Calm Calm - 0.12 in Rain Light Rain
6:15 PM 41.0 °F 39.0 °F 41.0 °F 100% 30.04 in 3.0 mi East 3.5 mph - 0.01 in Rain Light Rain
6:35 PM 41.0 °F - 41.0 °F 100% 30.03 in 5.0 mi Calm Calm - 0.02 in Rain Light Rain
6:55 PM 41.0 °F - 41.0 °F 100% 30.03 in 5.0 mi Calm Calm - 0.04 in Rain Light Rain
7:15 PM 41.0 °F - 41.0 °F 100% 30.02 in 4.0 mi Calm Calm - 0.02 in Rain Rain
7:35 PM 41.0 °F - 41.0 °F 100% 30.02 in 3.0 mi Calm Calm - 0.08 in Rain Rain
7:55 PM 41.0 °F 39.0 °F 41.0 °F 100% 30.03 in 2.0 mi WSW 3.5 mph - 0.17 in Rain Rain
8:15 PM 41.0 °F - 41.0 °F 100% 30.02 in 2.0 mi Calm Calm - 0.05 in Rain Rain
8:35 PM 39.2 °F - 39.2 °F 100% 30.02 in 4.0 mi Calm Calm - 0.11 in Rain Light Rain
8:55 PM 39.2 °F 37.0 °F 39.2 °F 100% 30.01 in 2.5 mi WSW 3.5 mph - 0.17 in Rain Rain
9:15 PM 39.2 °F 37.0 °F 39.2 °F 100% 30.01 in 2.5 mi West 3.5 mph - 0.01 in Rain Light Rain
9:35 PM 39.2 °F - 39.2 °F 100% 30.02 in 2.5 mi Calm Calm - 0.02 in Rain Light Rain
9:55 PM 39.2 °F - 39.2 °F 100% 30.01 in 5.0 mi Calm Calm - 0.03 in Rain Light Rain
10:15 PM 39.2 °F - 39.2 °F 100% 30.02 in 3.0 mi Calm Calm - 0.03 in Rain Light Rain
10:35 PM 39.2 °F - 39.2 °F 100% 30.02 in 3.0 mi Calm Calm - 0.06 in Rain Light Rain
10:55 PM 39.2 °F 37.0 °F 39.2 °F 100% 30.01 in 3.0 mi WSW 3.5 mph - 0.12 in Rain Rain
11:15 PM 39.2 °F 37.0 °F 39.2 °F 100% 30.00 in 3.0 mi SSE 3.5 mph - 0.02 in Rain Light Rain
11:35 PM 39.2 °F - 39.2 °F 100% 30.00 in 6.0 mi Calm Calm - 0.05 in Rain Light Rain
11:55 PM 39.2 °F - 39.2 °F 100% 30.01 in 7.0 mi Calm Calm - 0.06 in Rain Light Rain